RS-38S
1 57189U 23091Z   26204.81101319  .00016585  00000-0  45865-3 0  9999
2 57189  97.5073 275.0548 0005163 301.3378  58.7360 15.37085049170317
SONATE-2
1 59112U 24043Q   26204.37832557  .00047130  00000-0  55216-3 0  9992
2 59112  97.5560 357.0780 0006369  79.1760 281.0214 15.61378243133539
GRBBeta
1 60237U 24128C   26204.12269231  .00003245  00000-0  22788-3 0  9999
2 60237  61.9898  90.1657 0035998 142.3680 217.9942 15.06847809111686
Curium One
1 60242U 24128H   26204.65760325  .00007626  00000-0  43612-3 0  9999
2 60242  61.9789  76.5577 0035305 138.5678 221.8105 15.12957814111978
ROBUSTA-3A
1 60243U 24128J   26204.64334536  .00007507  00000-0  43958-3 0  9991
2 60243  61.9864  79.2829 0036837 135.8014 224.6035 15.12077936111935
CatSat
1 60246U 24125J   26204.55223184  .00079909  00000-0  86146-3 0  9998
2 60246  97.2057  57.6428 0018969  53.4808 306.8194 15.63198517113061
HYPERVIEW-1G (RS66S)
1 61772U 24199AP  26204.81666370  .00378168  54555-4  13229-2 0  9999
2 61772  97.2765  86.7068 0008403 137.0144 223.1786 15.89198723140468
AO-123
1 61781U 24199AY  26204.84428875  .00007668  00000-0  21933-3 0  9996
2 61781  97.2958  73.1879 0013977 169.2350 190.9196 15.36149986139553
JINJUSat 1B
1 63210U 25052A   26204.67403897  .00017262  00000-0  51731-3 0  9992
2 63210  97.3958 101.4980 0002076   3.6033 356.5225 15.34562712 75699
NUSHSAT 1
1 63211U 25052B   26204.52556971  .00023230  00000-0  63662-3 0  9997
2 63211  97.3932 102.0469 0002128  21.5962 338.5372 15.37304658 75722
TEVEL2-4
1 63213U 25052D   26204.16105969  .00019975  00000-0  57523-3 0  9996
2 63213  97.3852 100.6345 0002750  36.8578 323.2855 15.35785273 75636
TEVEL2-5
1 63214U 25052E   26204.44646189  .00019471  00000-0  56402-3 0  9998
2 63214  97.3851 100.8580 0002730  37.4452 322.6982 15.35605621 75671
TEVEL2-6
1 63215U 25052F   26204.65512016  .00019677  00000-0  57044-3 0  9994
2 63215  97.3858 101.0520 0002772  40.1546 319.9902 15.35578989 75708
TEVEL2-1
1 63217U 25052H   26204.50179324  .00019446  00000-0  57430-3 0  9994
2 63217  97.3829 100.4780 0003444  42.4513 317.6997 15.34995797 75668
TEVEL2-3
1 63218U 25052J   26204.69056953  .00018500  00000-0  54530-3 0  9995
2 63218  97.3844 100.6932 0003243  45.3857 314.7650 15.35066967 75693
TEVEL2-2
1 63219U 25052K   26204.24110552  .00018973  00000-0  56041-3 0  9996
2 63219  97.3828 100.2199 0003547  42.9363 317.2156 15.34995797 75622
TEVEL2-9
1 63237U 25052AD  26204.52727877  .00018469  00000-0  58184-3 0  9991
2 63237  97.3892  99.8003 0006753  33.2211 326.9454 15.32937984 75593
TEVEL2-7
1 63238U 25052AE  26204.51019684  .00017379  00000-0  55326-3 0  9995
2 63238  97.3894  99.6834 0006911  33.4573 326.7104 15.32614693 75583
TEVEL2-8
1 63239U 25052AF  26204.45350642  .00016811  00000-0  53559-3 0  9997
2 63239  97.3896  99.6027 0006974  34.4342 325.7351 15.32597225 75577
SPIRONE
1 66657U 25274H   26204.29720648  .00001895  00000-0  18446-3 0  9991
2 66657  97.7469 133.0747 0010374 252.3983 107.6104 14.93676884 35616
K-HERO
1 66660U 25274L   26204.29185463  .00001883  00000-0  18147-3 0  9990
2 66660  97.7479 133.2568 0012224 257.4705 102.5148 14.94083125 35622
SNUGLITE-III DURI
1 66661U 25274M   26204.54672433  .00001661  00000-0  16051-3 0  9993
2 66661  97.7475 133.5291 0012908 257.5214 102.4562 14.94108275 35667
SAKHACUBE-CHOLBON
1 67290U 25313AU  26204.17879827  .00009633  00000-0  38305-3 0  9994
2 67290  97.3917 278.7752 0008298 218.7575 141.3069 15.25465775 31467
RS95S (QMR-KWT-2)
1 67291U 25313AV  26204.19629719  .00014210  00000-0  53589-3 0  9998
2 67291  97.3915 279.0500 0008095 214.8705 145.2005 15.27131934 31482
Ten-Koh2
1 68261U 25241B   26204.80105748  .00006456  00000-0  27438-3 0  9992
2 68261  51.6559 145.3264 0004758 260.7518  99.2922 15.24245486 20493
JACK-002
1 68417U 26067B   26203.12723685  .00006406  00000-0  30251-3 0  9994
2 68417  97.4584 161.2995 0003472 121.6282 238.5292 15.19772063 17253
DISCO 2
1 68431U 26067R   26204.60335132  .00007604  00000-0  36062-3 0  9997
2 68431  97.4617 162.7487 0001612 156.8093 203.3215 15.19564423 17470
HADES-SA (SpinnyONE)
1 68446U 26067AG  26202.33075419  .00013557  00000-0  62969-3 0  9999
2 68446  97.4419 160.1456 0005116 341.4904  18.6144 15.20113173 17113
PARUS-6U1
1 68456U 26067AS  26204.84614512  .00005622  00000-0  28086-3 0  9997
2 68456  97.4567 162.6593 0003865 311.7673  48.3230 15.17861939 17492
SAL-E
1 68458U 26067AU  26204.83412705  .00007853  00000-0  38674-3 0  9990
2 68458  97.4490 162.5642 0004241 325.1866  34.9090 15.18233244 17493
FSI-SAT 2
1 68792U 26088A   26204.87214692  .00003874  00000-0  26166-3 0  9995
2 68792  97.5113 353.2260 0013718 348.8382  11.2540 15.07091111 13819
OrigamiSat 2
1 68795U 26088D   26204.36499273  .00012322  00000-0  77138-3 0  9995
2 68795  97.5103 352.9850 0013742 316.5209  43.4935 15.09451321 13752
ARICA 2
1 68796U 26088E   26204.37768051  .00003832  00000-0  24804-3 0  9998
2 68796  97.5098 352.9532 0014417 318.3507  41.6623 15.08671786 13756
WASEDA-SAT-ZERO-II
1 68797U 26088F   26204.83110433  .00006429  00000-0  40971-3 0  9993
2 68797  97.5095 353.4192 0014195 315.6459  44.3631 15.08996761 13821
MANGARO-II-Piscus
1 68798U 26088G   26204.81978530  .00003835  00000-0  24570-3 0  9997
2 68798  97.5111 353.4461 0017776 319.0168  40.9724 15.09009660 13822
IO-86
1 40931U          25360.30710720  .00000000  00000-0  12800-3 0    00
2 40931   6.0006 332.5373 0012733 338.8432   8.1437 14.79075515    01
LILIUM-4                
1 71922C 26067AC  26089.50133053 -.00014632  00000+0 -74472-3 0    04
2 71922  97.4497  49.1617 0004341   5.9603 355.7042 15.16896692    16
